Weather History for Salida, CO

Change the Weather History Date:

Wednesday, April 17, 2013

  Actual Average (KGUC) Record (KGUC)
Temperature  
Mean Temperature 28 °F -  
Max Temperature 35 °F 51 °F 66 °F (2001)
Min Temperature 19 °F 23 °F 12 °F (1999)
Degree Days  
Heating Degree Days 38    
Moisture  
Dew Point 24 °F    
Average Humidity 78    
Maximum Humidity 89    
Minimum Humidity 61    
Precipitation  
Precipitation 0.00 in - - ()
Sea Level Pressure  
Sea Level Pressure 29.86 in    
Wind  
Wind Speed 14 mph (ESE)    
Max Wind Speed 28 mph    
Max Gust Speed 38 mph    
Visibility 9 miles    
Events      
Averages and records for this station are not official NWS values.
T = Trace of Precipitation, MM = Missing Value Source: NWS Daily Summary

Daily Weather History Graph

Daily Weather History Graph

Search for Another Location

Airport:

Trip Planner

Search our weather history database for the weather conditions in past years. The results will help you decide how hot, cold, wet, or windy it might be!

Date:

Astronomy

Apr. 17, 2013 Rise Set
Actual Time 6:24 AM MDT 7:43 PM MDT
Civil Twilight 5:57 AM MDT 8:10 PM MDT
Nautical Twilight 5:24 AM MDT 8:43 PM MDT
Astronomical Twilight 4:49 AM MDT 9:18 PM MDT
Moon 11:42 AM MDT (4/17) 1:21 AM MDT (4/17)
Length of Visible Light 14h 13m
Length of Day
13h 18m
Waxing Crescent, 43% of the Moon is Illuminated
Apr 17
Waxing Crescent
Apr 18
First Quarter
Apr 25
Full
May 2
Last Quarter
May 9
New

Hourly Weather History & Observations

Time (MDT) Temp. Windchill Dew Point Humidity Pressure Visibility Wind Dir Wind Speed Gust Speed Precip Events Conditions
12:15 AM 32.0 °F 22.5 °F 26.6 °F 80% 29.90 in 10.0 mi ESE 12.7 mph 19.6 mph N/A   Mostly Cloudy
12:35 AM 32.0 °F 23.0 °F 26.6 °F 80% 29.90 in 10.0 mi ESE 11.5 mph 16.1 mph N/A   Overcast
12:55 AM 32.0 °F 21.6 °F 26.4 °F 80% 29.90 in 10.0 mi ESE 15.0 mph 21.9 mph N/A   Overcast
1:15 AM 31.8 °F 23.3 °F 26.6 °F 81% 29.90 in 10.0 mi ESE 10.4 mph - N/A   Scattered Clouds
1:35 AM 31.6 °F 23.1 °F 26.8 °F 82% 29.90 in 10.0 mi East 10.4 mph - N/A   Scattered Clouds
1:55 AM 31.1 °F 21.9 °F 26.8 °F 84% 29.90 in 10.0 mi ESE 11.5 mph 17.3 mph N/A   Scattered Clouds
2:15 AM 31.1 °F 22.4 °F 27.0 °F 85% 29.88 in 10.0 mi ESE 10.4 mph 17.3 mph N/A   Scattered Clouds
2:35 AM 31.1 °F 22.4 °F 27.1 °F 85% 29.88 in 10.0 mi ESE 10.4 mph 19.6 mph N/A   Mostly Cloudy
2:55 AM 31.1 °F 20.9 °F 26.8 °F 84% 29.87 in 10.0 mi East 13.8 mph 21.9 mph N/A   Mostly Cloudy
3:15 AM 30.6 °F 19.8 °F 26.8 °F 86% 29.87 in 10.0 mi ESE 15.0 mph 20.7 mph N/A   Mostly Cloudy
3:35 AM 30.7 °F 21.4 °F 27.1 °F 86% 29.87 in 10.0 mi ESE 11.5 mph - N/A   Mostly Cloudy
3:55 AM 30.2 °F 20.8 °F 26.6 °F 86% 29.87 in 10.0 mi ESE 11.5 mph 16.1 mph N/A   Mostly Cloudy
4:15 AM 30.2 °F 20.8 °F 26.6 °F 86% 29.87 in 10.0 mi SE 11.5 mph 17.3 mph N/A   Mostly Cloudy
4:35 AM 30.6 °F 20.7 °F 27.0 °F 86% 29.86 in 10.0 mi ESE 12.7 mph 21.9 mph N/A   Mostly Cloudy
4:55 AM 30.2 °F 21.9 °F 26.6 °F 86% 29.86 in 10.0 mi ESE 9.2 mph 18.4 mph N/A   Overcast
5:15 AM 30.2 °F 21.9 °F 26.6 °F 86% 29.85 in 10.0 mi SE 9.2 mph - N/A   Overcast
5:35 AM 29.8 °F 20.9 °F 26.4 °F 87% 29.85 in 10.0 mi SE 10.4 mph - N/A   Overcast
5:55 AM 29.8 °F 22.2 °F 26.4 °F 87% 29.84 in 10.0 mi ESE 8.1 mph 18.4 mph N/A   Overcast
6:15 AM 29.7 °F 18.6 °F 26.2 °F 87% 29.83 in 10.0 mi SE 15.0 mph 20.7 mph N/A   Overcast
6:35 AM 29.3 °F 20.2 °F 26.1 °F 88% 29.83 in 10.0 mi ESE 10.4 mph 19.6 mph N/A   Overcast
6:55 AM 29.1 °F 17.9 °F 25.7 °F 87% 29.83 in 10.0 mi ESE 15.0 mph 23.0 mph N/A   Overcast
7:15 AM 28.9 °F 16.9 °F 25.5 °F 87% 29.83 in 10.0 mi ESE 17.3 mph 27.6 mph N/A   Overcast
7:35 AM 28.9 °F 18.6 °F 25.2 °F 86% 29.83 in 10.0 mi ESE 12.7 mph 23.0 mph N/A   Overcast
7:55 AM 29.3 °F 17.7 °F 24.4 °F 82% 29.82 in 10.0 mi ESE 16.1 mph 23.0 mph N/A   Overcast
8:15 AM 30.2 °F 17.4 °F 23.9 °F 77% 29.82 in 10.0 mi ESE 20.7 mph 28.8 mph N/A   Overcast
8:35 AM 30.6 °F 18.2 °F 23.9 °F 76% 29.81 in 10.0 mi ESE 19.6 mph 26.5 mph N/A   Overcast
8:55 AM 30.6 °F 22.4 °F 23.9 °F 76% 29.83 in 10.0 mi ESE 9.2 mph 29.9 mph N/A   Overcast
9:15 AM 30.2 °F 18.9 °F 24.3 °F 79% 29.81 in 10.0 mi ESE 16.1 mph 25.3 mph N/A   Overcast
9:35 AM 30.2 °F 19.8 °F 24.3 °F 79% 29.81 in 10.0 mi ESE 13.8 mph 23.0 mph N/A   Overcast
9:55 AM 30.0 °F 18.7 °F 24.3 °F 79% 29.80 in 10.0 mi ESE 16.1 mph 24.2 mph N/A   Overcast
10:15 AM 30.9 °F 19.8 °F 24.1 °F 76% 29.80 in 10.0 mi ESE 16.1 mph 23.0 mph N/A   Overcast
10:35 AM 31.8 °F 19.6 °F 23.9 °F 73% 29.79 in 10.0 mi ESE 20.7 mph 28.8 mph N/A   Overcast
10:55 AM 32.2 °F 20.0 °F 23.9 °F 72% 29.78 in 10.0 mi ESE 20.7 mph 29.9 mph N/A   Mostly Cloudy
11:15 AM 32.9 °F 25.3 °F 24.4 °F 71% 29.77 in 10.0 mi ESE 9.2 mph - N/A   Overcast
11:35 AM 32.0 °F 19.2 °F 23.7 °F 71% 29.77 in 10.0 mi ESE 23.0 mph 34.5 mph N/A   Overcast
11:55 AM 32.2 °F 19.7 °F 23.4 °F 70% 29.78 in 10.0 mi East 21.9 mph 29.9 mph N/A   Overcast
12:15 PM 32.7 °F 22.5 °F 23.5 °F 69% 29.77 in 10.0 mi ESE 15.0 mph 28.8 mph N/A   Overcast
12:35 PM 34.5 °F 21.5 °F 24.1 °F 66% 29.76 in 10.0 mi ESE 27.6 mph 38.0 mph N/A   Mostly Cloudy
12:55 PM 35.4 °F 23.2 °F 23.9 °F 63% 29.74 in 10.0 mi ESE 25.3 mph 35.7 mph N/A   Scattered Clouds
1:15 PM 33.3 °F 20.3 °F 23.4 °F 67% 29.74 in 10.0 mi ESE 25.3 mph 34.5 mph N/A   Scattered Clouds
1:55 PM 34.5 °F 22.5 °F 22.6 °F 62% 29.76 in 10.0 mi ESE 23.0 mph 32.2 mph N/A   Mostly Cloudy
2:35 PM 34.0 °F 25.5 °F 22.1 °F 62% 29.80 in 10.0 mi SE 11.5 mph 16.1 mph N/A   Overcast
2:55 PM 34.2 °F 25.2 °F 23.0 °F 64% 29.81 in 10.0 mi ESE 12.7 mph 19.6 mph N/A   Overcast
3:15 PM 34.9 °F 27.1 °F 23.0 °F 62% 29.80 in 10.0 mi ESE 10.4 mph 23.0 mph N/A   Overcast
3:35 PM 35.8 °F 25.7 °F 23.5 °F 61% 29.81 in 10.0 mi ESE 17.3 mph 25.3 mph N/A   Scattered Clouds
3:55 PM 34.5 °F 22.8 °F 23.7 °F 65% 29.81 in 10.0 mi ESE 21.9 mph 31.1 mph N/A   Mostly Cloudy
4:15 PM 34.2 °F 23.6 °F 22.8 °F 63% 29.82 in 10.0 mi ESE 17.3 mph 31.1 mph N/A   Mostly Cloudy
4:35 PM 32.9 °F 24.1 °F 23.0 °F 67% 29.81 in 10.0 mi ESE 11.5 mph 24.2 mph N/A   Scattered Clouds
4:55 PM 33.3 °F 21.2 °F 23.4 °F 67% 29.83 in 10.0 mi ESE 21.9 mph 31.1 mph N/A   Scattered Clouds
5:15 PM 32.2 °F 21.8 °F 23.7 °F 71% 29.84 in 10.0 mi ESE 15.0 mph 26.5 mph N/A   Scattered Clouds
5:35 PM 32.5 °F 20.5 °F 22.6 °F 67% 29.84 in 10.0 mi ESE 20.7 mph 31.1 mph N/A   Mostly Cloudy
5:55 PM 32.0 °F 20.5 °F 21.2 °F 64% 29.85 in 10.0 mi ESE 18.4 mph 31.1 mph N/A   Overcast
6:15 PM 31.8 °F 20.6 °F 21.9 °F 67% 29.85 in 10.0 mi ESE 17.3 mph 27.6 mph N/A   Overcast
6:35 PM 31.6 °F 20.0 °F 21.7 °F 67% 29.85 in 10.0 mi ESE 18.4 mph 26.5 mph N/A   Overcast
6:55 PM 30.9 °F 21.2 °F 21.9 °F 69% 29.87 in 10.0 mi ESE 12.7 mph 26.5 mph N/A   Overcast
7:15 PM 30.2 °F 19.8 °F 22.1 °F 72% 29.88 in 10.0 mi East 13.8 mph 26.5 mph N/A   Overcast
7:35 PM 29.3 °F 18.2 °F 23.4 °F 78% 29.88 in 3.0 mi East 15.0 mph 20.7 mph N/A   Overcast
7:55 PM 28.4 °F 19.1 °F 24.4 °F 85% 29.89 in 3.0 mi East 10.4 mph 18.4 mph N/A   Overcast
8:15 PM 28.4 °F 19.1 °F 23.2 °F 81% 29.90 in 10.0 mi East 10.4 mph 20.7 mph N/A   Overcast
8:35 PM 27.7 °F 18.2 °F 23.2 °F 83% 29.92 in 5.0 mi East 10.4 mph 19.6 mph N/A   Overcast
8:55 PM 26.6 °F 15.2 °F 22.3 °F 84% 29.95 in 10.0 mi East 13.8 mph - N/A   Overcast
9:15 PM 26.1 °F 15.0 °F 21.6 °F 83% 29.95 in 10.0 mi ESE 12.7 mph 21.9 mph N/A   Overcast
9:35 PM 25.2 °F 13.9 °F 20.7 °F 83% 29.97 in 4.0 mi ESE 12.7 mph 18.4 mph N/A   Overcast
9:55 PM 24.4 °F 13.0 °F 20.3 °F 84% 29.98 in 3.0 mi East 12.7 mph 19.6 mph N/A   Overcast
10:15 PM 23.5 °F 13.7 °F 20.1 °F 87% 29.99 in 4.0 mi East 9.2 mph 16.1 mph N/A   Overcast
10:35 PM 23.0 °F 12.4 °F 19.4 °F 86% 30.00 in 4.0 mi East 10.4 mph - N/A   Overcast
10:55 PM 22.1 °F 11.3 °F 19.0 °F 88% 30.01 in 5.0 mi East 10.4 mph - N/A   Overcast
11:15 PM 21.2 °F 10.1 °F 18.0 °F 87% 30.02 in 3.0 mi East 10.4 mph - N/A   Overcast
11:35 PM 20.3 °F 10.6 °F 17.6 °F 89% 30.03 in 1.8 mi East 8.1 mph - N/A   Overcast
11:55 PM 19.6 °F 10.6 °F 16.9 °F 89% 30.04 in 1.0 mi East 6.9 mph - N/A   Overcast